Location: Newark
(44.5208°N, 2.4294°E)
Time: 23:46:18
(UTC+00:00)

N. Korean satellite - Pass Details

Date: 23 October 2019
Orbit: 456 x 506 km, 97.2° (Epoch: 14 November)

Event Time Altitude Azimuth Distance (km) Brightness Sun altitude
Rises 17:15:12 0° 181° (S) 2,462 10.3 -4.6°
Reaches altitude 10° 17:17:17 10° 188° (S) 1,597 9.5 -5.0°
Maximum altitude 17:20:33 43° 261° (W) 660 8.0 -5.5°
Drops below altitude 10° 17:23:54 10° 335° (NNW) 1,626 9.4 -6.1°
Sets 17:26:02 0° 342° (NNW) 2,515 10.3 -6.5°
